Weather in Bay-Tal

Russia / Tyva Republic     50°54′37″N   90°03′21″E
temp.,
°C
wind,
m/s
gust,
m/s
humid.,
%
clouds,
%
prec.,
mm/h
press.,
hPa
HPBL,
m
5 march, fri
fri501:00−16nw22701 0.0 103022
04:00−18nw117526 0.0 102927
07:00−18nnw118148 0.0 102929
10:00−15ene218496 0.0 1027170
13:00−13e228294 0.1 1022249
16:00−10e2275100 0.1 1021178
19:00−11wsw127472 0.2 102721
22:00−11w44642 0.0 103232
6 march, sat
sat601:00−13w445517 0.0 103435
04:00−13wnw335689 0.0 103427
07:00−14w225393 0.0 103522
10:00−10se016599 0.0 103263
13:00−7ese216064 0.0 1027169
16:00−6ese216071 0.0 1023159
19:00−11w116237 0.0 102521
22:00−12wnw11543 0.0 102621
7 march, sun
sun701:00−13w11531 0.0 102621
04:00−13w11470 0.0 102521
07:00−13wnw11490 0.0 102721
10:00−9ese11658 0.0 102579
13:00−6ese226314 0.0 1022133
16:00−5ese22590 0.0 1021126
19:00−8w22520 0.0 102521
22:00−10wnw225418 0.0 102721
8 march, mon
mon801:00−11nw115659 0.0 102821
04:00−12wnw1156100 0.0 102821
07:00−13wnw1154100 0.0 102921
10:00−9e116067 0.0 102561
13:00−8e217038 0.0 1022202
16:00−7e21660 0.0 1019209
19:00−11ne117110 0.0 102027
22:00−11n006549 0.0 102221
9 march, tue
tue901:00−10w116675 0.0 102323
04:00−8w226689 0.0 102422
07:00−9w227144 0.0 102723
10:00−5sw11723 0.0 1027105
13:00−3se12651 0.0 1025297
16:00−3ese116324 0.0 1024173
19:00−7w116912 0.0 102621
22:00−9wnw11680 0.0 102721